Location: The Saddle
(36.8333°N, 80.3417°W)
Time: 05:25:32
(UTC-05:00)

S-56A Canister/Altair - Visible Passes

Search period start: 19 January 2022 00:00
Search period end: 29 January 2022 00:00
Orbit: 633 x 2499 km, 38.9° (Epoch: 18 January)

Date Brightness Start Highest point End Pass type
(mag) Time Alt. Az. Time Alt. Az. Time Alt. Az.
21 Jan 12.4 17:54:09 10° WSW 17:57:36 11° SW 18:01:16 10° SSW visible
22 Jan 10.1 06:59:33 10° S 07:02:13 15° SE 07:05:08 10° ESE visible
23 Jan 10.2 06:28:15 10° SSE 06:29:48 12° SE 06:31:26 10° ESE visible
26 Jan 8.8 06:51:12 10° SW 06:55:14 35° SSE 06:59:43 10° E visible
27 Jan 8.9 06:18:57 10° SSW 06:22:49 29° SSE 06:26:53 10° E visible
28 Jan 9.1 05:46:42 10° SSW 05:50:24 24° SSE 05:54:05 10° E visible
